Regional Weather Roundup
Issued by NWS Newport/Morehead, NC

Current Version | Previous Version | Text Only | Print | Product List | Glossary On
Versions: 1 2 3 4 5 6 7 8 9 10 11 12 13 14 15 16 17 18 19 20 21 22 23 24 25 26 27 28 29 30 31 32 33 34 35 36 37 38 39 40 41 42 43 44 45 46 47 48 49 50
000
ASUS42 KMHX 250425
RWRMHX
WEATHER ROUNDUP FOR EASTERN NORTH CAROLINA
NATIONAL WEATHER SERVICE NEWPORT/MOREHEAD CITY NC
1100 PM EST FRI FEB 24 2017

NOTE: "FAIR" INDICATES FEW OR NO CLOUDS BELOW 12,000 FEET
WITH NO SIGNIFICANT WEATHER AND/OR OBSTRUCTIONS TO VISIBILITY

NCZ015>017-031-032-045>047-102-103-250500-
NORTH COAST

CITY           SKY/WX    TMP DP  RH WIND       PRES   REMARKS
EDENTON        CLEAR     56  54  91 SE3       29.86S
ELIZABETH CITY CLEAR     62  57  83 SE7       29.86S
KITTY HAWK     NOT AVBL
MANTEO         CLEAR     60  57  89 SE6       29.85S

$$

NCZ045>047-081-094-103-104-250500-
CENTRAL COAST

CITY           SKY/WX    TMP DP  RH WIND       PRES   REMARKS
FRISCO         PTCLDY    66  60  81 E6        29.84F

$$

NCZ095-097-098-100-101-250500-
SOUTHERN COAST

CITY           SKY/WX    TMP DP  RH WIND       PRES   REMARKS
BEAUFORT       CLEAR     59  58  96 NW3       29.83F FOG
CEDAR ISLAND   NOT AVBL
JACKSONVILLE   CLEAR     57  57 100 CALM      29.83F
PINEY ISLAND   CLEAR    N/A N/A N/A E3        29.83F
WILMINGTON     CLEAR     57  57 100 CALM      29.84S


$$

NCZ011>013-027>030-043-044-078>080-089-090>093-098-250500-
COASTAL PLAIN

CITY           SKY/WX    TMP DP  RH WIND       PRES   REMARKS
AHOSKIE          N/A     56  55  99 CALM      29.85F FOG
CLINTON        PTCLDY    60  60  98 CALM      29.85S
ELIZABETHTOWN  PTCLDY    59  58  97 CALM      29.84F
GOLDSBORO      CLEAR     58  58 100 E3        29.82F
GREENVILLE     CLEAR     57  55  94 CALM      29.87F
HAVELOCK       CLEAR     59  56  89 NW3       29.85S
KENANSVILLE    CLEAR     55  54  94 CALM      29.84S FOG
KINSTON        CLEAR     55  54  96 CALM      29.85F FOG
NEW BERN       PTCLDY    55  55 100 CALM      29.85F FOG
RICHLANDS      CLEAR     55  54  96 CALM      29.85F
ROCKY MOUNT    CLEAR     61  59  93 S3        29.84F
WASHINGTON     CLEAR     55  55  97 CALM      29.84F
WHITEVILLE     CLEAR     59  57  94 CALM      29.84F

$$

AMZ130-135-150-152-154-156-158-170-250-252-270-ANZ085-086-088-633-658-670-250500-
MARINE OBSERVATIONS

STATION/POSITION TIME  TEMP    WIND        PRES    WAVE   SWELL
                       AIR SEA DIR/SP/G            HT/PER HT/PER
                 (UTC) (F)     (DEG/KT/KT) (MB)    (FT/S) (FT/S)
CHESAPEAKE LIGHT NOT AVBL
64 E VA BEACH    0350   57 55  110/  8/ 10 1010.7    6/ 9   7/ 9
DUCK             0400   57 49  140/  8/  9 1010.3
2 E DUCK         0400      51                N/A     4/11   2/11
OREGON INLET     0400   59 60  110/  5/  9 1010.3
13E OREGON INLT  NOT AVBL
HATTERAS CG      0400   65 63   80/  7/  9 1009.7
DIAMOND BUOY     0350   71 76  100/ 14/ 16 1010.2    9/10   8/10
CAPE LOOKOUT     0400   66     100/ 10/ 11 1009.4
BEAUFORT LAB     0400   63 62  320/  3/  4 1009.2
30 SE NEW RVR IN 0408   69     100/  8/ 12 1009.9
30 SE NEW RVR IN 0343      70                N/A     8/11   3/11
27 SE WRIGHTSVLE 0408   68 66   40/  4/  8 1009.3
5 SE WRIGHTSVLE  0408   60 59  360/  4/  8 1010.1
225 S CAPE HAT   0350   69 70  210/  4/  6 1008.0   10/10  10/10
41 SE CHARLESTON 0350   69 71   80/  2/  4 1010.2    6/11   7/11

$$




USA.gov is the U.S. government's official web portal to all federal, state and local government web resources and services.